Tracking 20621 objects as of 30-Mar-2020
HD Live streaming from Space Station
objects crossing your sky now

COSMOS 1691 DEB

Track COSMOS 1691 DEB now!
10-day predictions


NORAD ID: 43314
Int'l Code: 1985-094Y
Perigee: 1,332.6 km
Apogee: 1,389.3 km
Inclination: 82.6 °
Period: 112.8 minutes
Semi major axis: 7731 km
RCS: Unknown
Launch date: October 9, 1985
Source: Commonwealth of Independent States (former USSR) (CIS)
Launch site: PLESETSK MISSILE AND SPACE COMPLEX (PKMTR)

Note: This is SATELLITE DEBRIS
aabbcc
Your satellite tracking list
Your tracking list is empty




NASA's NSSDC Master Catalog

Two Line Element Set (TLE):
1 43314U 85094Y   20088.75823186  .00000206  00000-0  88871-3 0  9992
2 43314  82.5550  89.8271 0036665 124.1610 236.2975 12.76946216791968
Source of the keplerian elements: AFSPC